Time,TemperatureF,DewpointF,PressureIn,WindDirection,WindDirectionDegrees,WindSpeedMPH,WindSpeedGustMPH,Humidity,HourlyPrecipIn,Conditions,Clouds,dailyrainin,SoftwareType,DateUTC
2013-01-29 00:04:00,32.3,30.8,29.55,SSE,167,0.0,0.0,94,0.00,,,0.00,Wunderground v.1.15,2013-01-29 06:04:00,
2013-01-29 00:09:00,32.3,30.8,29.55,SSE,167,0.0,0.0,94,0.00,,,0.00,Wunderground v.1.15,2013-01-29 06:09:00,
2013-01-29 00:14:00,32.2,30.7,29.55,SSE,167,0.0,0.0,94,0.00,,,0.00,Wunderground v.1.15,2013-01-29 06:14:00,
2013-01-29 00:19:00,32.2,30.7,29.55,SSE,167,0.0,0.0,94,0.00,,,0.00,Wunderground v.1.15,2013-01-29 06:19:00,
2013-01-29 00:24:00,32.1,30.6,29.55,SSE,167,0.0,0.0,94,0.00,,,0.00,Wunderground v.1.15,2013-01-29 06:24:00,
2013-01-29 00:30:00,32.1,30.6,29.55,SSE,167,0.0,0.0,94,0.00,,,0.00,Wunderground v.1.15,2013-01-29 06:30:00,
2013-01-29 00:35:00,32.1,30.6,29.55,SSE,167,0.0,0.0,94,0.00,,,0.00,Wunderground v.1.15,2013-01-29 06:35:00,
2013-01-29 00:41:00,32.0,30.5,29.55,SSE,167,0.0,0.0,94,0.00,,,0.00,Wunderground v.1.15,2013-01-29 06:41:00,
2013-01-29 00:46:00,31.9,30.4,29.56,SSE,167,3.0,3.0,94,0.00,,,0.00,Wunderground v.1.15,2013-01-29 06:46:00,
2013-01-29 00:52:00,31.9,30.4,29.56,SSE,167,4.0,4.0,94,0.00,,,0.00,Wunderground v.1.15,2013-01-29 06:52:00,
2013-01-29 00:57:00,31.9,30.4,29.57,SSE,167,1.0,4.0,94,0.00,,,0.00,Wunderground v.1.15,2013-01-29 06:57:00,
2013-01-29 01:03:00,31.9,30.4,29.57,SSE,167,2.0,3.0,94,0.00,,,0.00,Wunderground v.1.15,2013-01-29 07:03:00,
2013-01-29 01:09:00,32.0,30.5,29.57,SSE,167,3.0,4.0,94,0.00,,,0.00,Wunderground v.1.15,2013-01-29 07:09:00,
2013-01-29 01:14:00,31.9,30.4,29.56,SSE,167,5.0,5.0,94,0.00,,,0.00,Wunderground v.1.15,2013-01-29 07:14:00,
2013-01-29 01:19:00,31.9,30.4,29.57,SSE,167,2.0,5.0,94,0.00,,,0.00,Wunderground v.1.15,2013-01-29 07:19:00,
2013-01-29 01:25:00,31.9,30.4,29.57,SSE,167,2.0,3.0,94,0.00,,,0.00,Wunderground v.1.15,2013-01-29 07:25:00,
2013-01-29 01:30:00,31.9,30.4,29.57,SSE,167,2.0,3.0,94,0.00,,,0.00,Wunderground v.1.15,2013-01-29 07:30:00,
2013-01-29 01:36:00,31.9,30.4,29.57,SSE,167,0.0,2.0,94,0.00,,,0.00,Wunderground v.1.15,2013-01-29 07:36:00,
2013-01-29 01:41:00,31.9,30.4,29.58,SSE,167,2.0,2.0,94,0.00,,,0.00,Wunderground v.1.15,2013-01-29 07:41:00,
2013-01-29 01:47:00,31.9,30.4,29.57,SSE,167,4.0,4.0,94,0.00,,,0.00,Wunderground v.1.15,2013-01-29 07:47:00,
2013-01-29 01:52:00,31.9,30.4,29.57,SSE,167,2.0,4.0,94,0.00,,,0.00,Wunderground v.1.15,2013-01-29 07:52:00,
2013-01-29 01:57:00,31.8,30.3,29.57,SSE,167,5.0,5.0,94,0.00,,,0.00,Wunderground v.1.15,2013-01-29 07:57:00,
2013-01-29 02:02:00,31.8,30.3,29.57,SSE,167,4.0,4.0,94,0.00,,,0.00,Wunderground v.1.15,2013-01-29 08:02:00,
2013-01-29 02:07:00,31.8,30.3,29.57,SSE,167,6.0,8.0,94,0.00,,,0.00,Wunderground v.1.15,2013-01-29 08:07:00,
2013-01-29 02:12:00,31.8,30.3,29.57,SSE,167,6.0,8.0,94,0.00,,,0.00,Wunderground v.1.15,2013-01-29 08:12:00,
2013-01-29 02:17:00,31.7,30.2,29.57,SSE,167,6.0,8.0,94,0.00,,,0.00,Wunderground v.1.15,2013-01-29 08:17:00,
2013-01-29 02:22:00,31.7,30.2,29.57,SSE,167,6.0,7.0,94,0.00,,,0.00,Wunderground v.1.15,2013-01-29 08:22:00,
2013-01-29 02:27:00,31.6,30.1,29.57,SSE,167,5.0,8.0,94,0.00,,,0.00,Wunderground v.1.15,2013-01-29 08:27:00,
2013-01-29 02:32:00,31.5,30.0,29.57,SSE,167,7.0,7.0,94,0.00,,,0.00,Wunderground v.1.15,2013-01-29 08:32:00,
2013-01-29 02:37:00,31.5,30.0,29.57,SSE,167,5.0,10.0,94,0.00,,,0.00,Wunderground v.1.15,2013-01-29 08:37:00,
2013-01-29 02:42:00,31.4,29.9,29.57,SSE,167,7.0,7.0,94,0.00,,,0.00,Wunderground v.1.15,2013-01-29 08:42:00,
2013-01-29 02:47:00,31.3,29.8,29.57,SSE,168,6.0,9.0,94,0.00,,,0.00,Wunderground v.1.15,2013-01-29 08:47:00,
2013-01-29 02:52:00,31.3,29.8,29.57,SW,236,7.0,8.0,94,0.00,,,0.00,Wunderground v.1.15,2013-01-29 08:52:00,
2013-01-29 02:57:00,31.2,29.7,29.58,West,265,7.0,10.0,94,0.00,,,0.00,Wunderground v.1.15,2013-01-29 08:57:00,
2013-01-29 03:02:00,31.2,29.7,29.58,West,269,6.0,10.0,94,0.00,,,0.00,Wunderground v.1.15,2013-01-29 09:02:00,
2013-01-29 03:07:00,31.2,29.7,29.58,West,270,3.0,10.0,94,0.00,,,0.00,Wunderground v.1.15,2013-01-29 09:07:00,
2013-01-29 03:12:00,31.1,29.6,29.58,West,270,1.0,5.0,94,0.00,,,0.00,Wunderground v.1.15,2013-01-29 09:12:00,
2013-01-29 03:17:00,31.1,29.6,29.59,WNW,282,9.0,11.0,94,0.00,,,0.00,Wunderground v.1.15,2013-01-29 09:17:00,
2013-01-29 03:22:00,31.0,29.5,29.59,WNW,284,6.0,10.0,94,0.00,,,0.00,Wunderground v.1.15,2013-01-29 09:22:00,
2013-01-29 03:28:00,31.0,29.5,29.60,WNW,284,9.0,11.0,94,0.00,,,0.00,Wunderground v.1.15,2013-01-29 09:28:00,
2013-01-29 03:33:00,31.0,29.5,29.61,WNW,291,10.0,11.0,94,0.00,,,0.00,Wunderground v.1.15,2013-01-29 09:33:00,
2013-01-29 03:38:00,31.0,29.5,29.58,WNW,291,10.0,11.0,94,0.00,,,0.00,Wunderground v.1.15,2013-01-29 09:38:00,
2013-01-29 03:43:00,30.9,29.4,29.59,WNW,294,6.0,9.0,94,0.00,,,0.00,Wunderground v.1.15,2013-01-29 09:43:00,
2013-01-29 03:48:00,30.9,29.4,29.56,WNW,294,4.0,11.0,94,0.00,,,0.00,Wunderground v.1.15,2013-01-29 09:48:00,
2013-01-29 03:53:00,30.8,29.3,29.54,WNW,294,1.0,5.0,94,0.00,,,0.00,Wunderground v.1.15,2013-01-29 09:53:00,
2013-01-29 03:58:00,30.8,29.3,29.56,WNW,294,0.0,6.0,94,0.00,,,0.00,Wunderground v.1.15,2013-01-29 09:58:00,
2013-01-29 04:03:00,30.8,29.3,29.57,WNW,294,8.0,10.0,94,0.00,,,0.00,Wunderground v.1.15,2013-01-29 10:03:00,
2013-01-29 04:08:00,30.8,29.3,29.58,NW,307,6.0,13.0,94,0.00,,,0.00,Wunderground v.1.15,2013-01-29 10:08:00,
2013-01-29 04:13:00,30.8,29.3,29.58,NW,307,8.0,10.0,94,0.00,,,0.00,Wunderground v.1.15,2013-01-29 10:13:00,
2013-01-29 04:18:00,30.8,29.3,29.58,NW,307,5.0,11.0,94,0.00,,,0.00,Wunderground v.1.15,2013-01-29 10:18:00,
2013-01-29 04:23:00,30.8,29.3,29.58,NW,307,0.0,9.0,94,0.00,,,0.00,Wunderground v.1.15,2013-01-29 10:23:00,
2013-01-29 04:28:00,30.8,29.3,29.57,NW,307,6.0,10.0,94,0.00,,,0.00,Wunderground v.1.15,2013-01-29 10:28:00,
2013-01-29 04:33:00,30.8,29.3,29.58,NW,307,11.0,13.0,94,0.00,,,0.00,Wunderground v.1.15,2013-01-29 10:33:00,
2013-01-29 04:38:00,30.8,29.3,29.58,NW,307,7.0,13.0,94,0.00,,,0.00,Wunderground v.1.15,2013-01-29 10:38:00,
2013-01-29 04:43:00,30.7,29.2,29.57,NW,307,6.0,9.0,94,0.00,,,0.00,Wunderground v.1.15,2013-01-29 10:43:00,
2013-01-29 04:48:00,30.6,29.1,29.57,NW,307,3.0,12.0,94,0.00,,,0.00,Wunderground v.1.15,2013-01-29 10:48:00,
2013-01-29 04:53:00,30.6,29.1,29.56,NW,308,1.0,7.0,94,0.00,,,0.00,Wunderground v.1.15,2013-01-29 10:53:00,
2013-01-29 04:58:00,30.6,29.1,29.56,NW,307,2.0,7.0,94,0.00,,,0.00,Wunderground v.1.15,2013-01-29 10:58:00,
2013-01-29 05:03:00,30.6,29.1,29.57,NW,307,2.0,7.0,94,0.00,,,0.00,Wunderground v.1.15,2013-01-29 11:03:00,
2013-01-29 05:08:00,30.5,29.0,29.58,NW,308,4.0,9.0,94,0.00,,,0.00,Wunderground v.1.15,2013-01-29 11:08:00,
2013-01-29 05:13:00,30.5,29.0,29.58,NW,307,4.0,8.0,94,0.00,,,0.00,Wunderground v.1.15,2013-01-29 11:13:00,
2013-01-29 05:18:00,30.5,29.0,29.57,NW,307,0.0,8.0,94,0.00,,,0.00,Wunderground v.1.15,2013-01-29 11:18:00,
2013-01-29 05:23:00,30.6,29.1,29.57,NW,307,1.0,5.0,94,0.00,,,0.00,Wunderground v.1.15,2013-01-29 11:23:00,
2013-01-29 05:28:00,30.5,29.0,29.57,NW,307,0.0,6.0,94,0.00,,,0.00,Wunderground v.1.15,2013-01-29 11:28:00,
2013-01-29 05:33:00,30.5,29.0,29.58,NW,307,5.0,11.0,94,0.00,,,0.00,Wunderground v.1.15,2013-01-29 11:33:00,
2013-01-29 05:38:00,30.4,28.9,29.58,NW,307,9.0,11.0,94,0.00,,,0.00,Wunderground v.1.15,2013-01-29 11:38:00,
2013-01-29 05:43:00,30.3,28.8,29.58,NW,307,6.0,10.0,94,0.00,,,0.00,Wunderground v.1.15,2013-01-29 11:43:00,
2013-01-29 05:48:00,30.4,28.9,29.58,NW,307,7.0,10.0,94,0.00,,,0.00,Wunderground v.1.15,2013-01-29 11:48:00,
2013-01-29 05:53:00,30.4,28.9,29.57,NW,307,8.0,13.0,94,0.00,,,0.00,Wunderground v.1.15,2013-01-29 11:53:00,
2013-01-29 05:58:00,30.4,28.9,29.58,NW,307,8.0,14.0,94,0.00,,,0.00,Wunderground v.1.15,2013-01-29 11:58:00,
2013-01-29 06:03:00,30.3,28.8,29.58,NW,307,7.0,12.0,94,0.00,,,0.00,Wunderground v.1.15,2013-01-29 12:03:00,
2013-01-29 06:08:00,30.1,28.6,29.57,NW,307,6.0,12.0,94,0.00,,,0.00,Wunderground v.1.15,2013-01-29 12:08:00,
2013-01-29 06:13:00,30.0,28.5,29.59,NW,307,8.0,12.0,94,0.00,,,0.00,Wunderground v.1.15,2013-01-29 12:13:00,
2013-01-29 06:18:00,29.9,28.4,29.59,NW,307,3.0,12.0,94,0.00,,,0.00,Wunderground v.1.15,2013-01-29 12:18:00,
2013-01-29 06:23:00,29.7,28.2,29.59,NW,307,5.0,8.0,94,0.00,,,0.00,Wunderground v.1.15,2013-01-29 12:23:00,
2013-01-29 06:28:00,29.5,28.0,29.60,NW,307,7.0,8.0,94,0.00,,,0.00,Wunderground v.1.15,2013-01-29 12:28:00,
2013-01-29 06:33:00,29.3,27.8,29.60,NW,307,8.0,11.0,94,0.00,,,0.00,Wunderground v.1.15,2013-01-29 12:33:00,
2013-01-29 06:38:00,29.2,27.7,29.60,NW,307,9.0,12.0,94,0.00,,,0.00,Wunderground v.1.15,2013-01-29 12:38:00,
2013-01-29 06:43:00,29.2,27.7,29.60,NW,307,11.0,11.0,94,0.00,,,0.00,Wunderground v.1.15,2013-01-29 12:43:00,
2013-01-29 06:48:00,29.1,27.6,29.60,NW,310,7.0,14.0,94,0.00,,,0.00,Wunderground v.1.15,2013-01-29 12:48:00,
2013-01-29 06:53:00,29.1,27.6,29.61,NW,310,4.0,12.0,94,0.00,,,0.00,Wunderground v.1.15,2013-01-29 12:53:00,
2013-01-29 06:58:00,29.1,27.6,29.61,NW,310,10.0,12.0,94,0.00,,,0.00,Wunderground v.1.15,2013-01-29 12:58:00,
2013-01-29 07:03:00,29.0,27.5,29.61,NW,310,9.0,11.0,94,0.00,,,0.00,Wunderground v.1.15,2013-01-29 13:03:00,
2013-01-29 07:08:00,28.9,27.4,29.63,NW,311,10.0,11.0,94,0.00,,,0.00,Wunderground v.1.15,2013-01-29 13:08:00,
2013-01-29 07:13:00,28.9,27.4,29.63,NW,311,12.0,14.0,94,0.00,,,0.00,Wunderground v.1.15,2013-01-29 13:13:00,
2013-01-29 07:18:00,28.8,27.3,29.65,NW,310,8.0,14.0,94,0.00,,,0.00,Wunderground v.1.15,2013-01-29 13:18:00,
2013-01-29 07:23:00,28.7,27.2,29.64,NW,313,12.0,13.0,94,0.00,,,0.00,Wunderground v.1.15,2013-01-29 13:23:00,
2013-01-29 07:28:00,28.8,27.3,29.64,NW,321,9.0,15.0,94,0.00,,,0.00,Wunderground v.1.15,2013-01-29 13:28:00,
2013-01-29 07:33:00,28.5,27.0,29.62,NW,325,7.0,14.0,94,0.00,,,0.00,Wunderground v.1.15,2013-01-29 13:33:00,
2013-01-29 07:38:00,28.4,26.9,29.62,NW,322,12.0,16.0,94,0.00,,,0.00,Wunderground v.1.15,2013-01-29 13:38:00,
2013-01-29 07:44:00,28.1,26.6,29.63,NW,313,9.0,17.0,94,0.00,,,0.00,Wunderground v.1.15,2013-01-29 13:44:00,
2013-01-29 07:49:00,28.1,26.6,29.63,NW,321,13.0,17.0,94,0.00,,,0.00,Wunderground v.1.15,2013-01-29 13:49:00,
2013-01-29 07:54:00,28.1,26.6,29.63,NW,320,3.0,12.0,94,0.00,,,0.00,Wunderground v.1.15,2013-01-29 13:54:00,
2013-01-29 07:59:00,28.0,26.5,29.63,NW,320,5.0,12.0,94,0.00,,,0.00,Wunderground v.1.15,2013-01-29 13:59:00,
2013-01-29 08:04:00,28.1,26.6,29.65,NW,321,13.0,13.0,94,0.00,,,0.00,Wunderground v.1.15,2013-01-29 14:04:00,
2013-01-29 08:09:00,28.1,26.6,29.64,NW,322,7.0,14.0,94,0.00,,,0.00,Wunderground v.1.15,2013-01-29 14:09:00,
2013-01-29 08:14:00,28.1,26.6,29.63,NW,323,11.0,12.0,94,0.00,,,0.00,Wunderground v.1.15,2013-01-29 14:14:00,
2013-01-29 08:19:00,28.1,26.6,29.63,NW,325,11.0,14.0,94,0.00,,,0.00,Wunderground v.1.15,2013-01-29 14:19:00,
2013-01-29 08:24:00,28.1,26.6,29.62,NW,325,6.0,13.0,94,0.00,,,0.00,Wunderground v.1.15,2013-01-29 14:24:00,
2013-01-29 08:29:00,28.0,26.5,29.62,NW,325,3.0,17.0,94,0.00,,,0.00,Wunderground v.1.15,2013-01-29 14:29:00,
2013-01-29 08:34:00,28.0,26.5,29.63,NW,326,7.0,12.0,94,0.00,,,0.00,Wunderground v.1.15,2013-01-29 14:34:00,
2013-01-29 08:39:00,28.0,26.5,29.65,NW,322,8.0,13.0,94,0.00,,,0.00,Wunderground v.1.15,2013-01-29 14:39:00,
2013-01-29 08:44:00,27.9,26.4,29.65,NNW,327,8.0,13.0,94,0.00,,,0.00,Wunderground v.1.15,2013-01-29 14:44:00,
2013-01-29 08:49:00,27.9,26.4,29.65,NW,325,1.0,13.0,94,0.00,,,0.00,Wunderground v.1.15,2013-01-29 14:49:00,
2013-01-29 08:54:00,27.9,26.4,29.66,NW,323,6.0,13.0,94,0.00,,,0.00,Wunderground v.1.15,2013-01-29 14:54:00,
2013-01-29 08:59:00,28.0,26.5,29.67,NW,324,7.0,13.0,94,0.00,,,0.00,Wunderground v.1.15,2013-01-29 14:59:00,
2013-01-29 09:04:00,28.2,26.7,29.66,NW,324,4.0,5.0,94,0.00,,,0.00,Wunderground v.1.15,2013-01-29 15:04:00,
2013-01-29 09:09:00,28.4,26.9,29.65,NW,323,1.0,9.0,94,0.00,,,0.00,Wunderground v.1.15,2013-01-29 15:09:00,
2013-01-29 09:14:00,28.5,27.0,29.66,NW,323,5.0,7.0,94,0.00,,,0.00,Wunderground v.1.15,2013-01-29 15:14:00,
2013-01-29 09:19:00,28.8,27.3,29.66,NW,323,5.0,11.0,94,0.00,,,0.00,Wunderground v.1.15,2013-01-29 15:19:00,
2013-01-29 09:25:00,28.8,27.3,29.66,NNW,327,9.0,14.0,94,0.00,,,0.00,Wunderground v.1.15,2013-01-29 15:25:00,
2013-01-29 09:30:00,28.8,27.3,29.66,NW,325,9.0,14.0,94,0.00,,,0.00,Wunderground v.1.15,2013-01-29 15:30:00,
2013-01-29 09:35:00,28.8,27.3,29.66,NW,325,5.0,7.0,94,0.00,,,0.00,Wunderground v.1.15,2013-01-29 15:35:00,
2013-01-29 09:40:00,28.8,27.3,29.66,NW,325,3.0,9.0,94,0.00,,,0.00,Wunderground v.1.15,2013-01-29 15:40:00,
2013-01-29 09:45:00,28.8,27.3,29.66,NW,325,8.0,8.0,94,0.00,,,0.00,Wunderground v.1.15,2013-01-29 15:45:00,
2013-01-29 09:50:00,28.8,27.3,29.66,NW,325,2.0,8.0,94,0.00,,,0.00,Wunderground v.1.15,2013-01-29 15:50:00,
2013-01-29 09:55:00,28.9,27.4,29.66,NW,325,1.0,4.0,94,0.00,,,0.00,Wunderground v.1.15,2013-01-29 15:55:00,
2013-01-29 10:00:00,29.1,27.6,29.66,NW,325,5.0,7.0,94,0.00,,,0.00,Wunderground v.1.15,2013-01-29 16:00:00,
2013-01-29 10:05:00,29.1,27.6,29.67,NW,325,4.0,10.0,94,0.00,,,0.00,Wunderground v.1.15,2013-01-29 16:05:00,
2013-01-29 10:10:00,29.0,27.5,29.67,NW,326,8.0,11.0,94,0.00,,,0.00,Wunderground v.1.15,2013-01-29 16:10:00,
2013-01-29 10:15:00,29.0,27.5,29.68,NW,325,6.0,11.0,94,0.00,,,0.00,Wunderground v.1.15,2013-01-29 16:15:00,
2013-01-29 10:20:00,29.0,27.5,29.68,NW,322,1.0,12.0,94,0.00,,,0.00,Wunderground v.1.15,2013-01-29 16:20:00,
2013-01-29 10:25:00,29.0,27.5,29.69,NW,323,5.0,9.0,94,0.00,,,0.00,Wunderground v.1.15,2013-01-29 16:25:00,
2013-01-29 10:30:00,28.9,27.4,29.70,NW,323,2.0,12.0,94,0.00,,,0.00,Wunderground v.1.15,2013-01-29 16:30:00,
2013-01-29 10:35:00,28.9,27.4,29.69,NW,323,3.0,7.0,94,0.00,,,0.00,Wunderground v.1.15,2013-01-29 16:35:00,
2013-01-29 10:40:00,29.0,27.5,29.68,NW,326,10.0,11.0,94,0.00,,,0.00,Wunderground v.1.15,2013-01-29 16:40:00,
2013-01-29 10:45:00,28.9,27.1,29.68,NW,322,10.0,13.0,93,0.00,,,0.00,Wunderground v.1.15,2013-01-29 16:45:00,
2013-01-29 10:50:00,28.9,27.1,29.69,NW,323,4.0,13.0,93,0.00,,,0.00,Wunderground v.1.15,2013-01-29 16:50:00,
2013-01-29 10:55:00,29.0,27.5,29.69,NW,325,3.0,8.0,94,0.00,,,0.00,Wunderground v.1.15,2013-01-29 16:55:00,
2013-01-29 11:00:00,29.1,27.6,29.70,NW,325,8.0,10.0,94,0.00,,,0.00,Wunderground v.1.15,2013-01-29 17:00:00,
2013-01-29 11:05:00,29.2,27.7,29.70,NW,323,1.0,11.0,94,0.00,,,0.00,Wunderground v.1.15,2013-01-29 17:05:00,
2013-01-29 11:10:00,29.1,27.6,29.70,NW,323,3.0,11.0,94,0.00,,,0.00,Wunderground v.1.15,2013-01-29 17:10:00,
2013-01-29 11:15:00,29.0,27.5,29.70,NNW,327,2.0,9.0,94,0.00,,,0.00,Wunderground v.1.15,2013-01-29 17:15:00,
2013-01-29 11:20:00,28.9,27.4,29.70,NNW,327,4.0,9.0,94,0.00,,,0.00,Wunderground v.1.15,2013-01-29 17:20:00,
2013-01-29 11:25:00,29.0,27.5,29.69,NNW,327,0.0,5.0,94,0.00,,,0.00,Wunderground v.1.15,2013-01-29 17:25:00,
2013-01-29 11:30:00,29.3,27.5,29.70,NNW,327,0.0,6.0,93,0.00,,,0.00,Wunderground v.1.15,2013-01-29 17:30:00,
2013-01-29 11:35:00,29.3,27.5,29.69,NNW,327,2.0,8.0,93,0.00,,,0.00,Wunderground v.1.15,2013-01-29 17:35:00,
2013-01-29 11:40:00,29.3,27.5,29.68,NNW,327,4.0,8.0,93,0.00,,,0.00,Wunderground v.1.15,2013-01-29 17:40:00,
2013-01-29 11:45:00,29.3,27.5,29.69,NNW,327,2.0,8.0,93,0.00,,,0.00,Wunderground v.1.15,2013-01-29 17:45:00,
2013-01-29 11:50:00,29.2,27.4,29.68,North,360,6.0,12.0,93,0.00,,,0.00,Wunderground v.1.15,2013-01-29 17:50:00,
2013-01-29 11:55:00,29.1,27.3,29.67,North,5,0.0,11.0,93,0.00,,,0.00,Wunderground v.1.15,2013-01-29 17:55:00,
2013-01-29 12:00:00,29.3,27.5,29.67,North,9,0.0,12.0,93,0.00,,,0.00,Wunderground v.1.15,2013-01-29 18:00:00,
2013-01-29 12:06:00,29.4,27.6,29.67,North,9,0.0,9.0,93,0.00,,,0.00,Wunderground v.1.15,2013-01-29 18:06:00,
2013-01-29 12:11:00,29.6,27.8,29.67,North,9,1.0,9.0,93,0.00,,,0.00,Wunderground v.1.15,2013-01-29 18:11:00,
2013-01-29 12:16:00,29.7,27.9,29.67,North,9,0.0,5.0,93,0.00,,,0.00,Wunderground v.1.15,2013-01-29 18:16:00,
2013-01-29 12:21:00,29.9,28.1,29.67,North,9,0.0,6.0,93,0.00,,,0.00,Wunderground v.1.15,2013-01-29 18:21:00,
2013-01-29 12:26:00,29.9,28.1,29.66,North,9,4.0,8.0,93,0.00,,,0.00,Wunderground v.1.15,2013-01-29 18:26:00,
2013-01-29 12:31:00,30.0,28.2,29.66,North,9,1.0,2.0,93,0.00,,,0.00,Wunderground v.1.15,2013-01-29 18:31:00,
2013-01-29 12:36:00,29.9,28.1,29.66,NNE,12,1.0,12.0,93,0.00,,,0.00,Wunderground v.1.15,2013-01-29 18:36:00,
2013-01-29 12:41:00,30.1,28.3,29.66,North,11,11.0,11.0,93,0.00,,,0.00,Wunderground v.1.15,2013-01-29 18:41:00,
2013-01-29 12:46:00,30.3,28.5,29.65,NNE,12,2.0,11.0,93,0.00,,,0.00,Wunderground v.1.15,2013-01-29 18:46:00,
2013-01-29 12:51:00,30.6,28.8,29.65,North,11,0.0,3.0,93,0.00,,,0.00,Wunderground v.1.15,2013-01-29 18:51:00,
2013-01-29 12:56:00,30.7,28.9,29.65,NNE,12,1.0,7.0,93,0.00,,,0.00,Wunderground v.1.15,2013-01-29 18:56:00,
2013-01-29 13:01:00,30.8,29.0,29.65,North,11,6.0,6.0,93,0.00,,,0.00,Wunderground v.1.15,2013-01-29 19:01:00,
2013-01-29 13:06:00,30.8,29.0,29.65,North,11,1.0,7.0,93,0.00,,,0.00,Wunderground v.1.15,2013-01-29 19:06:00,
2013-01-29 13:11:00,30.9,29.1,29.65,NNE,12,4.0,5.0,93,0.00,,,0.00,Wunderground v.1.15,2013-01-29 19:11:00,
2013-01-29 13:16:00,30.9,29.1,29.65,North,11,5.0,6.0,93,0.00,,,0.00,Wunderground v.1.15,2013-01-29 19:16:00,
2013-01-29 13:21:00,31.1,29.3,29.65,NNE,12,0.0,1.0,93,0.00,,,0.00,Wunderground v.1.15,2013-01-29 19:21:00,
2013-01-29 13:26:00,31.1,29.3,29.65,NNE,14,3.0,10.0,93,0.00,,,0.00,Wunderground v.1.15,2013-01-29 19:26:00,
2013-01-29 13:31:00,31.1,29.3,29.66,NNE,15,2.0,2.0,93,0.00,,,0.00,Wunderground v.1.15,2013-01-29 19:31:00,
2013-01-29 13:36:00,31.1,29.3,29.67,NNE,15,7.0,7.0,93,0.00,,,0.00,Wunderground v.1.15,2013-01-29 19:36:00,
2013-01-29 13:41:00,31.2,29.4,29.66,NNE,15,1.0,1.0,93,0.00,,,0.00,Wunderground v.1.15,2013-01-29 19:41:00,
2013-01-29 13:46:00,31.2,29.4,29.65,NNE,14,2.0,7.0,93,0.00,,,0.00,Wunderground v.1.15,2013-01-29 19:46:00,
2013-01-29 13:51:00,31.3,29.5,29.66,NNE,15,4.0,4.0,93,0.00,,,0.00,Wunderground v.1.15,2013-01-29 19:51:00,
2013-01-29 13:56:00,31.1,29.3,29.65,North,351,5.0,13.0,93,0.00,,,0.00,Wunderground v.1.15,2013-01-29 19:56:00,
2013-01-29 14:00:00,31.1,29.3,29.66,North,350,9.0,13.0,93,0.00,,,0.00,Wunderground v.1.15,2013-01-29 20:00:00,
2013-01-29 14:05:00,31.1,29.3,29.65,NNW,340,4.0,9.0,93,0.00,,,0.00,Wunderground v.1.15,2013-01-29 20:05:00,
2013-01-29 14:10:00,31.1,29.3,29.65,NNW,341,4.0,9.0,93,0.00,,,0.00,Wunderground v.1.15,2013-01-29 20:10:00,
2013-01-29 14:15:00,31.4,29.6,29.66,NNW,340,1.0,5.0,93,0.00,,,0.00,Wunderground v.1.15,2013-01-29 20:15:00,
2013-01-29 14:20:00,31.4,29.6,29.66,NNW,341,3.0,6.0,93,0.00,,,0.00,Wunderground v.1.15,2013-01-29 20:20:00,
2013-01-29 14:25:00,31.2,29.4,29.66,NNW,338,4.0,11.0,93,0.00,,,0.00,Wunderground v.1.15,2013-01-29 20:25:00,
2013-01-29 14:30:00,31.3,29.5,29.66,NNW,337,5.0,11.0,93,0.00,,,0.00,Wunderground v.1.15,2013-01-29 20:30:00,
2013-01-29 14:35:00,31.4,29.6,29.65,NNW,338,3.0,7.0,93,0.00,,,0.00,Wunderground v.1.15,2013-01-29 20:35:00,
2013-01-29 14:40:00,31.3,29.5,29.65,NNW,337,5.0,7.0,93,0.00,,,0.00,Wunderground v.1.15,2013-01-29 20:40:00,
2013-01-29 14:45:00,31.2,29.4,29.65,NNW,337,4.0,9.0,93,0.00,,,0.00,Wunderground v.1.15,2013-01-29 20:45:00,
2013-01-29 14:50:00,31.0,29.2,29.66,NNW,330,2.0,13.0,93,0.00,,,0.00,Wunderground v.1.15,2013-01-29 20:50:00,
2013-01-29 14:55:00,31.1,29.3,29.66,NNW,330,5.0,7.0,93,0.00,,,0.00,Wunderground v.1.15,2013-01-29 20:55:00,
2013-01-29 15:00:00,31.2,29.4,29.67,NNW,330,6.0,7.0,93,0.00,,,0.00,Wunderground v.1.15,2013-01-29 21:00:00,
2013-01-29 15:05:00,30.9,29.1,29.67,NNW,327,1.0,11.0,93,0.00,,,0.00,Wunderground v.1.15,2013-01-29 21:05:00,
2013-01-29 15:10:00,30.8,29.0,29.68,NW,324,6.0,11.0,93,0.00,,,0.00,Wunderground v.1.15,2013-01-29 21:10:00,
2013-01-29 15:15:00,30.8,29.0,29.68,NW,324,3.0,7.0,93,0.00,,,0.00,Wunderground v.1.15,2013-01-29 21:15:00,
2013-01-29 15:20:00,30.7,28.9,29.67,NW,324,2.0,8.0,93,0.00,,,0.00,Wunderground v.1.15,2013-01-29 21:20:00,
2013-01-29 15:25:00,30.6,28.6,29.67,NW,323,6.0,6.0,92,0.00,,,0.00,Wunderground v.1.15,2013-01-29 21:25:00,
2013-01-29 15:30:00,30.6,28.6,29.66,NW,324,8.0,11.0,92,0.00,,,0.00,Wunderground v.1.15,2013-01-29 21:30:00,
2013-01-29 15:35:00,30.4,28.4,29.66,NW,323,5.0,9.0,92,0.00,,,0.00,Wunderground v.1.15,2013-01-29 21:35:00,
2013-01-29 15:40:00,30.2,28.2,29.65,NW,323,6.0,9.0,92,0.00,,,0.00,Wunderground v.1.15,2013-01-29 21:40:00,
2013-01-29 15:45:00,30.0,28.0,29.65,NW,322,9.0,12.0,92,0.00,,,0.00,Wunderground v.1.15,2013-01-29 21:45:00,
2013-01-29 15:50:00,29.8,27.5,29.66,NW,323,5.0,12.0,91,0.00,,,0.00,Wunderground v.1.15,2013-01-29 21:50:00,
2013-01-29 15:55:00,29.8,27.5,29.67,NW,323,0.0,6.0,91,0.00,,,0.00,Wunderground v.1.15,2013-01-29 21:55:00,
2013-01-29 16:00:00,29.8,27.5,29.67,NW,323,2.0,6.0,91,0.00,,,0.00,Wunderground v.1.15,2013-01-29 22:00:00,
2013-01-29 16:05:00,29.8,27.5,29.67,NW,322,3.0,7.0,91,0.00,,,0.00,Wunderground v.1.15,2013-01-29 22:05:00,
2013-01-29 16:11:00,29.8,27.5,29.66,NW,323,3.0,7.0,91,0.00,,,0.00,Wunderground v.1.15,2013-01-29 22:11:00,
2013-01-29 16:16:00,29.6,27.3,29.66,NW,322,5.0,8.0,91,0.00,,,0.00,Wunderground v.1.15,2013-01-29 22:16:00,
2013-01-29 16:21:00,29.4,27.1,29.66,NW,323,5.0,8.0,91,0.00,,,0.00,Wunderground v.1.15,2013-01-29 22:21:00,
2013-01-29 16:26:00,29.2,26.9,29.66,NW,323,3.0,6.0,91,0.00,,,0.00,Wunderground v.1.15,2013-01-29 22:26:00,
2013-01-29 16:31:00,29.1,26.8,29.66,NW,323,0.0,4.0,91,0.00,,,0.00,Wunderground v.1.15,2013-01-29 22:31:00,
2013-01-29 16:36:00,29.0,26.7,29.66,NW,323,4.0,10.0,91,0.00,,,0.00,Wunderground v.1.15,2013-01-29 22:36:00,
2013-01-29 16:41:00,29.0,26.7,29.67,NW,323,4.0,4.0,91,0.00,,,0.00,Wunderground v.1.15,2013-01-29 22:41:00,
2013-01-29 16:46:00,28.8,26.5,29.67,NW,323,3.0,8.0,91,0.00,,,0.00,Wunderground v.1.15,2013-01-29 22:46:00,
2013-01-29 16:51:00,28.6,26.3,29.67,NW,323,4.0,6.0,91,0.00,,,0.00,Wunderground v.1.15,2013-01-29 22:51:00,
2013-01-29 16:56:00,28.5,26.2,29.67,NW,323,1.0,9.0,91,0.00,,,0.00,Wunderground v.1.15,2013-01-29 22:56:00,
2013-01-29 17:01:00,28.4,26.1,29.67,NW,323,6.0,7.0,91,0.00,,,0.00,Wunderground v.1.15,2013-01-29 23:01:00,
2013-01-29 17:06:00,28.4,26.1,29.68,NW,323,8.0,8.0,91,0.00,,,0.00,Wunderground v.1.15,2013-01-29 23:06:00,
2013-01-29 17:11:00,28.4,26.1,29.68,NW,323,4.0,6.0,91,0.00,,,0.00,Wunderground v.1.15,2013-01-29 23:11:00,
2013-01-29 17:16:00,28.3,26.0,29.68,NW,323,1.0,7.0,91,0.00,,,0.00,Wunderground v.1.15,2013-01-29 23:16:00,
2013-01-29 17:21:00,28.3,26.0,29.68,NW,323,4.0,5.0,91,0.00,,,0.00,Wunderground v.1.15,2013-01-29 23:21:00,
2013-01-29 17:26:00,28.2,25.9,29.68,NW,323,1.0,5.0,91,0.00,,,0.00,Wunderground v.1.15,2013-01-29 23:26:00,
2013-01-29 17:32:00,28.2,25.9,29.69,NW,323,3.0,5.0,91,0.00,,,0.00,Wunderground v.1.15,2013-01-29 23:32:00,
2013-01-29 17:37:00,28.1,25.8,29.70,NW,323,2.0,7.0,91,0.00,,,0.00,Wunderground v.1.15,2013-01-29 23:37:00,
2013-01-29 17:42:00,27.9,25.6,29.69,NW,323,0.0,6.0,91,0.00,,,0.00,Wunderground v.1.15,2013-01-29 23:42:00,
2013-01-29 17:47:00,27.8,25.2,29.69,NW,323,0.0,7.0,90,0.00,,,0.00,Wunderground v.1.15,2013-01-29 23:47:00,
2013-01-29 17:52:00,27.7,25.2,29.69,NW,323,4.0,6.0,90,0.00,,,0.00,Wunderground v.1.15,2013-01-29 23:52:00,
2013-01-29 17:57:00,27.4,24.9,29.69,NW,323,3.0,7.0,90,0.00,,,0.00,Wunderground v.1.15,2013-01-29 23:57:00,
2013-01-29 18:02:00,26.9,24.4,29.69,NW,323,2.0,9.0,90,0.00,,,0.00,Wunderground v.1.15,2013-01-30 00:02:00,
2013-01-29 18:07:00,26.7,24.2,29.70,NW,323,3.0,9.0,90,0.00,,,0.00,Wunderground v.1.15,2013-01-30 00:07:00,
2013-01-29 18:12:00,26.4,23.9,29.69,NW,323,1.0,6.0,90,0.00,,,0.00,Wunderground v.1.15,2013-01-30 00:12:00,
2013-01-29 18:17:00,26.1,23.3,29.68,NW,326,6.0,9.0,89,0.00,,,0.00,Wunderground v.1.15,2013-01-30 00:17:00,
2013-01-29 18:22:00,25.6,22.8,29.67,NNW,335,4.0,8.0,89,0.00,,,0.00,Wunderground v.1.15,2013-01-30 00:22:00,
2013-01-29 18:27:00,25.3,22.5,29.68,NNW,336,6.0,8.0,89,0.00,,,0.00,Wunderground v.1.15,2013-01-30 00:27:00,
2013-01-29 18:32:00,25.2,22.4,29.69,NNW,337,7.0,10.0,89,0.00,,,0.00,Wunderground v.1.15,2013-01-30 00:32:00,
2013-01-29 18:37:00,24.9,22.1,29.69,NNW,338,6.0,10.0,89,0.00,,,0.00,Wunderground v.1.15,2013-01-30 00:37:00,
2013-01-29 18:42:00,24.9,22.1,29.69,NNW,338,7.0,9.0,89,0.00,,,0.00,Wunderground v.1.15,2013-01-30 00:42:00,
2013-01-29 18:47:00,24.8,22.3,29.70,NNW,338,6.0,9.0,90,0.00,,,0.00,Wunderground v.1.15,2013-01-30 00:47:00,
2013-01-29 18:52:00,24.5,21.7,29.70,NNW,337,7.0,8.0,89,0.00,,,0.00,Wunderground v.1.15,2013-01-30 00:52:00,
2013-01-29 18:57:00,24.3,21.5,29.70,NNW,338,6.0,14.0,89,0.00,,,0.00,Wunderground v.1.15,2013-01-30 00:57:00,
2013-01-29 19:02:00,24.0,21.2,29.71,NNW,341,6.0,8.0,89,0.00,,,0.00,Wunderground v.1.15,2013-01-30 01:02:00,
2013-01-29 19:07:00,24.0,21.2,29.72,NNW,341,4.0,10.0,89,0.00,,,0.00,Wunderground v.1.15,2013-01-30 01:07:00,
2013-01-29 19:12:00,24.0,21.2,29.71,NNW,341,4.0,7.0,89,0.00,,,0.00,Wunderground v.1.15,2013-01-30 01:12:00,
2013-01-29 19:17:00,23.9,21.1,29.71,NNW,341,3.0,9.0,89,0.00,,,0.00,Wunderground v.1.15,2013-01-30 01:17:00,
2013-01-29 19:22:00,23.7,20.9,29.70,NNW,342,3.0,7.0,89,0.00,,,0.00,Wunderground v.1.15,2013-01-30 01:22:00,
2013-01-29 19:27:00,23.6,20.8,29.70,NNW,342,6.0,8.0,89,0.00,,,0.00,Wunderground v.1.15,2013-01-30 01:27:00,
2013-01-29 19:32:00,23.6,21.1,29.72,NNW,342,3.0,7.0,90,0.00,,,0.00,Wunderground v.1.15,2013-01-30 01:32:00,
2013-01-29 19:37:00,23.4,20.9,29.71,NNW,342,7.0,11.0,90,0.00,,,0.00,Wunderground v.1.15,2013-01-30 01:37:00,
2013-01-29 19:42:00,23.2,20.4,29.72,NNW,342,0.0,9.0,89,0.00,,,0.00,Wunderground v.1.15,2013-01-30 01:42:00,
2013-01-29 19:47:00,23.0,20.2,29.72,NNW,341,3.0,9.0,89,0.00,,,0.00,Wunderground v.1.15,2013-01-30 01:47:00,
2013-01-29 19:52:00,22.8,20.3,29.72,NNW,337,8.0,8.0,90,0.00,,,0.00,Wunderground v.1.15,2013-01-30 01:52:00,
2013-01-29 19:57:00,22.7,19.9,29.72,NNW,329,7.0,15.0,89,0.00,,,0.00,Wunderground v.1.15,2013-01-30 01:57:00,
2013-01-29 20:02:00,22.6,19.8,29.71,NNW,336,5.0,13.0,89,0.00,,,0.00,Wunderground v.1.15,2013-01-30 02:02:00,
2013-01-29 20:07:00,22.7,20.2,29.73,NNW,336,2.0,13.0,90,0.00,,,0.00,Wunderground v.1.15,2013-01-30 02:07:00,
2013-01-29 20:12:00,22.8,20.3,29.72,NNW,336,7.0,9.0,90,0.00,,,0.00,Wunderground v.1.15,2013-01-30 02:12:00,
2013-01-29 20:18:00,22.8,20.3,29.72,NNW,333,4.0,11.0,90,0.00,,,0.00,Wunderground v.1.15,2013-01-30 02:18:00,
2013-01-29 20:23:00,22.7,20.2,29.72,NNW,340,7.0,11.0,90,0.00,,,0.00,Wunderground v.1.15,2013-01-30 02:23:00,
2013-01-29 20:28:00,22.7,20.2,29.72,NNW,342,6.0,11.0,90,0.00,,,0.00,Wunderground v.1.15,2013-01-30 02:28:00,
2013-01-29 20:33:00,22.7,20.2,29.71,NNW,343,3.0,8.0,90,0.00,,,0.00,Wunderground v.1.15,2013-01-30 02:33:00,
2013-01-29 20:38:00,22.6,20.1,29.72,NNW,346,2.0,11.0,90,0.00,,,0.00,Wunderground v.1.15,2013-01-30 02:38:00,
2013-01-29 20:43:00,22.4,19.9,29.72,North,355,1.0,12.0,90,0.00,,,0.00,Wunderground v.1.15,2013-01-30 02:43:00,
2013-01-29 20:48:00,22.2,19.7,29.73,NNW,332,7.0,13.0,90,0.00,,,0.00,Wunderground v.1.15,2013-01-30 02:48:00,
2013-01-29 20:53:00,22.0,19.3,29.73,NNW,334,7.0,10.0,89,0.00,,,0.00,Wunderground v.1.15,2013-01-30 02:53:00,
2013-01-29 20:58:00,22.0,19.3,29.73,NNW,337,7.0,11.0,89,0.00,,,0.00,Wunderground v.1.15,2013-01-30 02:58:00,
2013-01-29 21:03:00,21.9,19.4,29.73,NNW,340,6.0,9.0,90,0.00,,,0.00,Wunderground v.1.15,2013-01-30 03:03:00,
2013-01-29 21:08:00,21.9,19.4,29.73,NNW,340,3.0,10.0,90,0.00,,,0.00,Wunderground v.1.15,2013-01-30 03:08:00,
2013-01-29 21:13:00,21.9,19.4,29.74,NNW,340,1.0,6.0,90,0.00,,,0.00,Wunderground v.1.15,2013-01-30 03:13:00,
2013-01-29 21:18:00,21.9,19.4,29.75,NNW,340,4.0,8.0,90,0.00,,,0.00,Wunderground v.1.15,2013-01-30 03:18:00,
2013-01-29 21:23:00,21.9,19.4,29.75,NNW,344,1.0,13.0,90,0.00,,,0.00,Wunderground v.1.15,2013-01-30 03:23:00,
2013-01-29 21:28:00,21.9,19.4,29.75,NNW,345,5.0,13.0,90,0.00,,,0.00,Wunderground v.1.15,2013-01-30 03:28:00,
2013-01-29 21:33:00,21.8,19.3,29.75,NNW,345,4.0,11.0,90,0.00,,,0.00,Wunderground v.1.15,2013-01-30 03:33:00,
2013-01-29 21:38:00,21.8,19.1,29.76,NNW,346,1.0,11.0,89,0.00,,,0.00,Wunderground v.1.15,2013-01-30 03:38:00,
2013-01-29 21:43:00,21.8,19.1,29.75,North,349,2.0,6.0,89,0.00,,,0.00,Wunderground v.1.15,2013-01-30 03:43:00,
2013-01-29 21:48:00,21.8,19.1,29.76,North,349,1.0,8.0,89,0.00,,,0.00,Wunderground v.1.15,2013-01-30 03:48:00,
2013-01-29 21:53:00,21.8,19.1,29.75,North,349,2.0,7.0,89,0.00,,,0.00,Wunderground v.1.15,2013-01-30 03:53:00,
2013-01-29 21:58:00,21.8,19.1,29.75,North,350,3.0,8.0,89,0.00,,,0.00,Wunderground v.1.15,2013-01-30 03:58:00,
2013-01-29 22:03:00,21.8,19.3,29.75,North,355,8.0,9.0,90,0.00,,,0.00,Wunderground v.1.15,2013-01-30 04:03:00,
2013-01-29 22:08:00,21.7,19.2,29.74,North,355,5.0,10.0,90,0.00,,,0.00,Wunderground v.1.15,2013-01-30 04:08:00,
2013-01-29 22:13:00,21.6,19.1,29.74,NNW,346,2.0,11.0,90,0.00,,,0.00,Wunderground v.1.15,2013-01-30 04:13:00,
2013-01-29 22:18:00,21.5,19.0,29.75,WNW,286,3.0,11.0,90,0.00,,,0.00,Wunderground v.1.15,2013-01-30 04:18:00,
2013-01-29 22:23:00,21.5,19.0,29.75,North,355,3.0,11.0,90,0.00,,,0.00,Wunderground v.1.15,2013-01-30 04:23:00,
2013-01-29 22:28:00,21.5,19.0,29.75,NW,325,4.0,11.0,90,0.00,,,0.00,Wunderground v.1.15,2013-01-30 04:28:00,
2013-01-29 22:33:00,21.4,18.9,29.74,North,355,8.0,13.0,90,0.00,,,0.00,Wunderground v.1.15,2013-01-30 04:33:00,
2013-01-29 22:38:00,21.3,18.6,29.73,ENE,59,9.0,13.0,89,0.00,,,0.00,Wunderground v.1.15,2013-01-30 04:38:00,
2013-01-29 22:43:00,21.3,18.6,29.74,NNW,336,0.0,11.0,89,0.00,,,0.00,Wunderground v.1.15,2013-01-30 04:43:00,
2013-01-29 22:48:00,21.3,18.8,29.72,NW,318,1.0,13.0,90,0.00,,,0.00,Wunderground v.1.15,2013-01-30 04:48:00,
2013-01-29 22:53:00,21.2,18.5,29.74,NW,315,4.0,9.0,89,0.00,,,0.00,Wunderground v.1.15,2013-01-30 04:53:00,
2013-01-29 22:58:00,21.1,18.4,29.73,NW,310,7.0,15.0,89,0.00,,,0.00,Wunderground v.1.15,2013-01-30 04:58:00,
2013-01-29 23:01:00,21.1,18.4,29.73,NW,309,7.0,7.0,89,0.00,,,0.00,Wunderground v.1.15,2013-01-30 05:01:00,
2013-01-29 23:03:00,21.1,18.6,29.74,NW,309,5.0,10.0,90,0.00,,,0.00,Wunderground v.1.15,2013-01-30 05:03:00,
2013-01-29 23:08:00,21.1,18.4,29.73,NW,306,6.0,10.0,89,0.00,,,0.00,Wunderground v.1.15,2013-01-30 05:08:00,
2013-01-29 23:13:00,20.9,18.4,29.74,NW,304,8.0,11.0,90,0.00,,,0.00,Wunderground v.1.15,2013-01-30 05:13:00,
2013-01-29 23:18:00,20.9,18.4,29.75,NW,304,4.0,11.0,90,0.00,,,0.00,Wunderground v.1.15,2013-01-30 05:18:00,
2013-01-29 23:24:00,20.8,18.3,29.75,WNW,296,6.0,14.0,90,0.00,,,0.00,Wunderground v.1.15,2013-01-30 05:24:00,
2013-01-29 23:29:00,20.8,18.1,29.73,WNW,297,7.0,14.0,89,0.00,,,0.00,Wunderground v.1.15,2013-01-30 05:29:00,
2013-01-29 23:34:00,20.8,18.1,29.72,WNW,292,10.0,14.0,89,0.00,,,0.00,Wunderground v.1.15,2013-01-30 05:34:00,
2013-01-29 23:39:00,20.8,18.1,29.72,WNW,294,6.0,14.0,89,0.00,,,0.00,Wunderground v.1.15,2013-01-30 05:39:00,
2013-01-29 23:44:00,20.8,18.1,29.70,WNW,294,14.0,15.0,89,0.00,,,0.00,Wunderground v.1.15,2013-01-30 05:44:00,
2013-01-29 23:49:00,20.8,18.1,29.72,NNE,26,4.0,15.0,89,0.00,,,0.00,Wunderground v.1.15,2013-01-30 05:49:00,
2013-01-29 23:54:00,20.8,18.1,29.72,NE,39,10.0,11.0,89,0.00,,,0.00,Wunderground v.1.15,2013-01-30 05:54:00,
2013-01-29 23:59:00,20.7,18.0,29.73,ENE,57,15.0,16.0,89,0.00,,,0.00,Wunderground v.1.15,2013-01-30 05:59:00,